Flag for U.S.A. Weather past 2 weeks in Scottsdale, Arizona, U.S.A.

Now
56 °F

Clear.


Feels Like: 56 °F
Forecast: 40 / 54 °F
Wind: No wind

Location: Scottsdale Airport

Current Time: Dec 24, 2014 at 7:28:01 PM

Latest Report: Dec 24, 2014 at 6:53 PM


Visibility: 10 mi

Pressure: 29.93 "Hg

Humidity: 29%

Dew point: 24 °F

Location of ScottsdaleLocation

Historic Weather in Scottsdale — Graph

°F

Scottsdale temperature yesterday

Maximum temperature yesterday: 66 °F (at 2:53 PM)
Minimum temperature yesterday: 45 °F (at 5:53 AM)
Average temperature yesterday: 56 °F

Past Weeks' High & Low Weather Summary

 TemperatureHumidityPressure
High76 °F (Dec 10, 3:53 PM)100% (Dec 13, 5:02 AM)30.24 "Hg (Dec 13, 5:02 AM)
Low40 °F (Dec 24, 6:53 AM)11% (Dec 23, 3:53 PM)29.87 "Hg (Dec 22, 4:53 PM)
Average55 °F63%30.04 "Hg
* Reported Dec 9 5:53 PM — Dec 24 5:53 PM, Scottsdale, Weather by CustomWeather, © 2014

Note: Actual official high and low records may vary slightly from our data, if they occured in-between our weather recording intervals... More about our weather records

Advertising

Scottsdale weather history for previous 24 hours

 ConditionsComfort  
Time TempWeatherWind HumidityBarometerVisibility
5:53 PM
Dec 24
57 °FClear.No wind26%29.94 "Hg10 mi
4:53 PM60 °FSunny.No wind18%29.95 "Hg10 mi
3:53 PM61 °FSunny.No wind15%29.96 "Hg10 mi
2:53 PM62 °FSunny.No wind14%29.98 "Hg10 mi
1:53 PM62 °FSunny.6 mph13%29.99 "Hg10 mi
12:53 PM62 °FSunny.No wind13%30.03 "Hg10 mi
11:53 AM60 °FSunny.5 mph14%30.07 "Hg10 mi
10:53 AM57 °FSunny.No wind15%30.12 "Hg10 mi
9:53 AM52 °FSunny.No wind26%30.15 "Hg10 mi
8:53 AM45 °FSunny.No wind44%30.16 "Hg10 mi
7:53 AM42 °FSunny.No wind41%30.17 "Hg10 mi
6:53 AM40 °FClear.No wind47%30.15 "Hg10 mi
5:53 AM42 °FClear.No wind39%30.13 "Hg10 mi
4:53 AM45 °FClear.No wind31%30.14 "Hg10 mi
3:53 AM43 °FClear.5 mph37%30.15 "Hg10 mi
2:53 AM46 °FClear.3 mph29%30.15 "Hg10 mi
1:53 AM52 °FClear.10 mph18%30.15 "Hg10 mi
12:53 AM51 °FClear.6 mph21%30.14 "Hg10 mi
11:53 PM
Dec 23
53 °FClear.6 mph18%30.17 "Hg10 mi
10:53 PM52 °FClear.3 mph23%30.17 "Hg10 mi
9:53 PM56 °FClear.7 mph16%30.15 "Hg10 mi
8:53 PM57 °FClear.No wind16%30.14 "Hg10 mi
7:53 PM58 °FClear.12 mph15%30.14 "Hg10 mi
Weather by CustomWeather, © 2014

See weather overviewHow to use our weather pages